Regional Weather Roundup
Issued by NWS

Home | Current Version | Previous Version | Text Only | Print | Product List | Glossary Off
Versions: 1 2 3 4 5 6 7 8 9 10 11 12 13 14 15 16 17 18 19 20 21 22 23 24 25 26 27 28 29 30 31 32 33 34 35 36 37 38 39 40 41 42 43 44 45 46 47 48 49 50

000
ASUS45 KSLC 310910
RWRUT

UTAH REGIONAL WEATHER ROUNDUP
NATIONAL WEATHER SERVICE SALT LAKE CITY UT
300 AM MDT THU JUL 31 2014

UTZ001>011-023>025-311000-

NORTHERN UTAH

CITY           SKY/WX    TMP DP  RH WIND       PRES   REMARKS
HILL AFB       CLEAR     65  53  64 E10         N/A
LOGAN          CLEAR     61  51  70 CALM      30.24R
OGDEN          CLEAR     65  51  60 NW5       30.19S
PROVO AIRPORT  PTCLDY    63  54  72 N3        30.20F
SALT LAKE CITY PTCLDY    65  55  70 S6        30.17S
VERNAL         CLEAR     61  48  62 CALM      30.26S
WENDOVER       MOCLDY    73  55  53 CALM      30.20S
HEBER CITY     PTCLDY    55  52  88 CALM      30.30R
WEST JORDAN    CLEAR     66  57  72 NW6       30.21R

$$

UTZ012>022-026-027-311000-

SOUTHERN UTAH

CITY           SKY/WX    TMP DP  RH WIND       PRES   REMARKS
BRYCE CANYON   PTCLDY    52  47  83 N5        30.38S
CEDAR CITY     PTCLDY    66  49  54 SE8       30.24F
MILFORD        CLOUDY    72  51  47 N6        30.19F
MOAB/CYNLANDS  CLEAR     68  57  68 W3        30.14F
PRICE          CLEAR     63  50  62 N7        30.26S
ST GEORGE      SUNNY     82  48  30 SE10      30.04R
KANAB            N/A     66  52  59 NE8       30.20R

$$

REGIONAL REPORTS     COLORADO/ARIZONA

CITY           SKY/WX    TMP DP  RH WIND       PRES   REMARKS
CRAIG, CO      CLOUDY    51  51 100 CALM      30.31
GRAND JUNCTION CLEAR     63  58  83 CALM      30.18S
RIFLE          PTCLDY    60  56  86 CALM      30.24S
MONTROSE       CLEAR     62  54  74 S7        30.26S
CORTEZ         CLEAR     57  51  80 CALM      30.22R
PAGE, AZ       CLEAR     82  48  30 NW7       30.10R
GRAND CANYON   CLEAR     56  48  74 CALM      30.30S
KINGMAN        CLEAR     78  49  35 SE9       30.03S
FLAGSTAFF      PTCLDY    61  46  57 SW5       30.32F

$$

REGIONAL REPORTS    NEVADA/IDAHO/WYOMING

CITY           SKY/WX    TMP DP  RH WIND       PRES   REMARKS
LAS VEGAS, NV  MOCLDY    90  48  23 SW5       29.91S
ELY            CLOUDY    63  47  55 CALM      30.31R
ELKO           MOCLDY    71  45  39 NE8       30.22R
POCATELLO, ID  CLEAR     61  48  62 E6        30.23S
BURLEY         PTCLDY    62  52  69 NE3       30.18F
EVANSTON, WY   CLEAR     53  47  79 N5        30.38S
ROCK SPRINGS   CLEAR     53  42  66 NW3       30.37F

$$


USA.gov is the U.S. government's official web portal to all federal, state and local government web resources and services.